Oakes, ND

8:28 PM CDT on October 14, 2019 (GMT -0500)
Oakes

Weather History for K2D5 - September, 2019

Change the Weather History Date:

Thursday, September 19, 2019

  Actual Average (KP67) Record (KP67)
Temperature  
Mean Temperature 66 °F -  
Max Temperature 82 °F 69 °F 66 °F (1996)
Min Temperature 51 °F 44 °F 46 °F (1997)
Cooling Degree Days 2    
Growing Degree Days 16 (Base 50)    
Moisture  
Dew Point 60 °F    
Average Humidity 83    
Maximum Humidity 100    
Minimum Humidity 48    
Precipitation  
Precipitation 0.00 in - - ()
Sea Level Pressure  
Sea Level Pressure 29.96 in    
Wind  
Wind Speed 5 mph (SE)    
Max Wind Speed 15 mph    
Max Gust Speed 17 mph    
Visibility 8 miles    
Events Fog    
Averages and records for this station are not official NWS values.
T = Trace of Precipitation, MM = Missing Value Source: NWS Daily Summary

Daily Weather History Graph

Daily Weather History Graph

Search for Another Location

Airport or City:

Astronomy

Sep. 19, 2019 Rise Set
Actual Time 7:15 AM CDT 7:36 PM CDT
Civil Twilight 6:45 AM CDT 8:06 PM CDT
Nautical Twilight 6:09 AM CDT 8:41 PM CDT
Astronomical Twilight 5:33 AM CDT 9:17 PM CDT
Moon 10:29 PM CDT (9/19) 12:36 PM CDT (9/19)
Length of Visible Light 13h 20m
Length of Day
12h 20m
Waning Gibbous, 74% of the Moon is Illuminated
Sep 19
Waning Gibbous
Sep 21
Last Quarter
Sep 28
New
Oct 5
First Quarter
Oct 13
Full

Hourly Weather History & Observations

Time (CDT) Temp. Heat Index Dew Point Humidity Pressure Visibility Wind Dir Wind Speed Gust Speed Precip Events Conditions
12:35 AM 60.8 °F - 60.8 °F 100% 29.93 in 9.0 mi Calm Calm - N/A   Clear
12:55 AM 59.0 °F - 59.0 °F 100% 29.94 in 10.0 mi Calm Calm - N/A   Clear
1:15 AM 57.2 °F - 57.2 °F 100% 29.95 in 10.0 mi SSW 4.6 mph - N/A   Clear
1:35 AM 57.2 °F - 57.2 °F 100% 29.95 in 10.0 mi SSW 4.6 mph - N/A   Clear
1:55 AM 57.2 °F - 57.2 °F 100% 29.96 in 10.0 mi SSW 5.8 mph - N/A   Partly Cloudy
2:15 AM 55.4 °F - 55.4 °F 100% 29.95 in 9.0 mi South 5.8 mph - N/A   Clear
2:35 AM 55.4 °F - 55.4 °F 100% 29.96 in 9.0 mi SSW 4.6 mph - N/A   Clear
2:55 AM 55.4 °F - 55.4 °F 100% 29.96 in 9.0 mi South 8.1 mph - N/A   Partly Cloudy
3:15 AM 55.4 °F - 55.4 °F 100% 29.95 in 9.0 mi Calm Calm - N/A   Clear
3:35 AM 55.4 °F - 55.4 °F 100% 29.95 in 9.0 mi West 4.6 mph - N/A   Clear
3:55 AM 55.4 °F - 55.4 °F 100% 29.96 in 8.0 mi West 3.5 mph - N/A   Clear
4:15 AM 55.4 °F - 55.4 °F 100% 29.96 in 6.0 mi West 3.5 mph - N/A   Clear
4:35 AM 53.6 °F - 53.6 °F 100% 29.96 in 4.0 mi Calm Calm - N/A   Clear
4:55 AM 53.6 °F - 53.6 °F 100% 29.96 in 0.5 mi Calm Calm - N/A   Mist
5:15 AM 53.6 °F - 53.6 °F 100% 29.96 in 0.2 mi Calm Calm - N/A Fog Fog
5:35 AM 53.6 °F - 53.6 °F 100% 29.96 in 0.2 mi Calm Calm - N/A Fog Fog
5:55 AM 53.6 °F - 53.6 °F 100% 29.96 in 0.2 mi Calm Calm - N/A Fog Fog
6:15 AM 51.8 °F - 51.8 °F 100% 29.96 in 0.2 mi Calm Calm - N/A Fog Fog
6:35 AM 51.8 °F - 51.8 °F 100% 29.96 in 0.2 mi Calm Calm - N/A Fog Fog
6:55 AM 51.8 °F - 51.8 °F 100% 29.97 in 0.2 mi Calm Calm - N/A Fog Fog
7:15 AM 51.8 °F - 51.8 °F 100% 29.97 in 0.2 mi Calm Calm - N/A Fog Fog
7:35 AM 51.8 °F - 51.8 °F 100% 29.98 in 0.5 mi SSW 4.6 mph - N/A Fog Fog
7:55 AM 51.8 °F - 51.8 °F 100% 29.99 in 6.0 mi South 4.6 mph - N/A   Clear
8:15 AM 53.6 °F - 53.6 °F 100% 29.99 in 7.0 mi Calm Calm - N/A   Clear
8:55 AM 57.2 °F - 57.2 °F 100% 30.00 in 9.0 mi Calm Calm - N/A   Clear
9:15 AM - - - N/A% 30.00 in 8.0 mi Calm Calm - N/A   Clear
9:35 AM 62.6 °F - 62.6 °F 100% 30.01 in 9.0 mi ENE 5.8 mph - N/A   Clear
9:55 AM 64.4 °F - 64.4 °F 100% 30.01 in 9.0 mi East 6.9 mph - N/A   Clear
10:15 AM 66.2 °F - 64.4 °F 94% 30.01 in 9.0 mi East 5.8 mph - N/A   Clear
10:35 AM 68.0 °F - 62.6 °F 83% 30.01 in 10.0 mi East 8.1 mph - N/A   Clear
10:55 AM 69.8 °F - 62.6 °F 78% 30.00 in 10.0 mi East 8.1 mph - N/A   Clear
11:15 AM 71.6 °F - 62.6 °F 73% 30.00 in 10.0 mi ESE 10.4 mph - N/A   Clear
11:35 AM 73.4 °F - 62.6 °F 69% 30.00 in 10.0 mi SE 10.4 mph - N/A   Clear
11:55 AM 75.2 °F - 62.6 °F 65% 29.99 in 10.0 mi ESE 10.4 mph - N/A   Clear
12:55 PM 77.0 °F - 62.6 °F 61% 29.99 in 10.0 mi SE 6.9 mph 13.8 mph N/A   Clear
1:15 PM 78.8 °F - 60.8 °F 54% 29.98 in 9.0 mi SE 5.8 mph 12.7 mph N/A   Clear
1:35 PM 78.8 °F - 62.6 °F 57% 29.98 in 10.0 mi Variable 6.9 mph 13.8 mph N/A   Clear
1:55 PM 80.6 °F 81.5 °F 60.8 °F 51% 29.97 in 10.0 mi ESE 9.2 mph - N/A   Clear
2:15 PM 80.6 °F 81.8 °F 62.6 °F 54% 29.97 in 10.0 mi ESE 9.2 mph - N/A   Clear
2:35 PM 80.6 °F 81.8 °F 62.6 °F 54% 29.96 in 10.0 mi ESE 15.0 mph - N/A   Partly Cloudy
2:55 PM 82.4 °F 83.4 °F 62.6 °F 51% 29.96 in 10.0 mi SE 10.4 mph - N/A   Partly Cloudy
3:15 PM 80.6 °F 81.1 °F 59.0 °F 48% 29.96 in 9.0 mi SE 12.7 mph - N/A   Clear
3:35 PM 82.4 °F 82.9 °F 60.8 °F 48% 29.96 in 10.0 mi SE 9.2 mph - N/A   Clear
3:55 PM 82.4 °F 82.9 °F 60.8 °F 48% 29.95 in 10.0 mi SE 12.7 mph - N/A   Clear
4:15 PM 80.6 °F 81.5 °F 60.8 °F 51% 29.95 in 9.0 mi SE 12.7 mph - N/A   Clear
4:35 PM 80.6 °F 81.1 °F 59.0 °F 48% 29.94 in 10.0 mi SSE 12.7 mph - N/A   Clear
4:55 PM 80.6 °F 81.5 °F 60.8 °F 51% 29.93 in 10.0 mi SE 8.1 mph 16.1 mph N/A   Clear
5:15 PM 80.6 °F 81.5 °F 60.8 °F 51% 29.93 in 10.0 mi SE 11.5 mph 17.3 mph N/A   Clear
5:35 PM 80.6 °F 81.5 °F 60.8 °F 51% 29.93 in 10.0 mi SE 11.5 mph 17.3 mph N/A   Clear
5:55 PM 80.6 °F 81.8 °F 62.6 °F 54% 29.92 in 9.0 mi ESE 10.4 mph - N/A   Clear
6:15 PM 78.8 °F - 62.6 °F 57% 29.92 in 10.0 mi ESE 10.4 mph - N/A   Clear
6:35 PM 77.0 °F - 64.4 °F 65% 29.92 in 9.0 mi ESE 10.4 mph - N/A   Clear
6:55 PM 75.2 °F - 64.4 °F 69% 29.92 in 10.0 mi ESE 10.4 mph - N/A   Clear
7:15 PM 73.4 °F - 64.4 °F 73% 29.92 in 9.0 mi ESE 9.2 mph - N/A   Clear
7:35 PM 69.8 °F - 64.4 °F 83% 29.92 in 10.0 mi East 9.2 mph - N/A   Clear
7:55 PM 68.0 °F - 64.4 °F 88% 29.92 in 9.0 mi ESE 9.2 mph - N/A   Clear
8:15 PM 68.0 °F - 66.2 °F 94% 29.93 in 10.0 mi East 9.2 mph - N/A   Clear
8:35 PM 68.0 °F - 64.4 °F 88% 29.93 in 9.0 mi East 10.4 mph - N/A   Clear
8:55 PM 66.2 °F - 64.4 °F 94% 29.93 in 10.0 mi East 10.4 mph - N/A   Clear
9:15 PM 66.2 °F - 64.4 °F 94% 29.93 in 10.0 mi East 11.5 mph - N/A   Clear
9:35 PM 66.2 °F - 64.4 °F 94% 29.92 in 10.0 mi East 11.5 mph - N/A   Clear
9:55 PM 66.2 °F - 64.4 °F 94% 29.92 in 9.0 mi ESE 11.5 mph - N/A   Clear
10:15 PM 66.2 °F - 64.4 °F 94% 29.92 in 10.0 mi ESE 10.4 mph - N/A   Clear
10:35 PM 66.2 °F - 64.4 °F 94% 29.93 in 10.0 mi ESE 10.4 mph - N/A   Clear
10:55 PM 64.4 °F - 64.4 °F 100% 29.93 in 10.0 mi ESE 9.2 mph - N/A   Partly Cloudy
11:35 PM 64.4 °F - 64.4 °F 100% 29.93 in 10.0 mi ESE 10.4 mph - N/A   Mostly Cloudy
11:55 PM 64.4 °F - 64.4 °F 100% 29.93 in 10.0 mi ESE 9.2 mph - N/A   Overcast